TimeEST,TemperatureF,Dew PointF,Humidity,Sea Level PressureIn,VisibilityMPH,Wind Direction,Wind SpeedMPH,Gust SpeedMPH,PrecipitationIn,Events,Conditions,WindDirDegrees,DateUTC
12:15 AM,33.1,33.1,100,30.25,10.0,Calm,Calm,-,N/A,,Scattered Clouds,0,2012-12-13 05:15:00
12:35 AM,32.9,32.9,100,30.25,5.0,Calm,Calm,-,N/A,,Mostly Cloudy,0,2012-12-13 05:35:00
12:55 AM,32.9,32.7,99,30.24,7.0,Calm,Calm,-,N/A,,Overcast,0,2012-12-13 05:55:00
1:15 AM,32.9,32.7,99,30.23,0.5,Calm,Calm,-,N/A,,Overcast,0,2012-12-13 06:15:00
1:35 AM,33.4,33.4,100,30.25,0.8,West,6.9,-,N/A,,Overcast,260,2012-12-13 06:35:00
1:55 AM,33.8,33.8,100,30.27,0.2,West,3.5,-,N/A,,Overcast,260,2012-12-13 06:55:00
2:15 AM,33.4,33.4,100,30.28,0.2,Calm,Calm,-,N/A,,Overcast,0,2012-12-13 07:15:00
2:35 AM,33.4,33.4,100,30.29,0.2,ENE,3.5,-,N/A,,Overcast,70,2012-12-13 07:35:00
2:55 AM,32.9,32.9,100,30.29,0.2,Calm,Calm,-,N/A,,Overcast,0,2012-12-13 07:55:00
3:15 AM,32.9,32.9,100,30.29,0.2,Calm,Calm,-,N/A,,Overcast,0,2012-12-13 08:15:00
3:35 AM,32.9,32.9,100,30.29,0.5,Calm,Calm,-,N/A,,Overcast,0,2012-12-13 08:35:00
3:55 AM,32.9,32.9,100,30.29,0.2,Calm,Calm,-,N/A,,Overcast,0,2012-12-13 08:55:00
4:15 AM,32.0,32.0,100,30.30,0.2,Calm,Calm,-,N/A,,Overcast,0,2012-12-13 09:15:00
4:35 AM,32.2,32.2,100,30.29,0.2,Calm,Calm,-,N/A,,Overcast,0,2012-12-13 09:35:00
4:55 AM,32.2,32.2,100,30.30,0.2,Calm,Calm,-,N/A,,Overcast,0,2012-12-13 09:55:00
5:15 AM,32.0,32.0,100,30.30,0.2,Calm,Calm,-,N/A,,Overcast,0,2012-12-13 10:15:00
5:35 AM,31.8,31.8,100,30.31,0.5,Calm,Calm,-,N/A,,Overcast,0,2012-12-13 10:35:00
5:55 AM,32.0,32.0,100,30.31,0.2,Calm,Calm,-,N/A,,Overcast,0,2012-12-13 10:55:00
6:15 AM,31.6,31.6,100,30.31,0.2,Calm,Calm,-,N/A,,Overcast,0,2012-12-13 11:15:00
6:35 AM,30.9,30.9,100,30.30,0.5,Calm,Calm,-,N/A,,Overcast,0,2012-12-13 11:35:00
6:55 AM,30.6,30.6,100,30.30,1.2,Calm,Calm,-,N/A,,Overcast,0,2012-12-13 11:55:00
7:15 AM,30.6,30.6,100,30.31,0.5,Calm,Calm,-,N/A,,Overcast,0,2012-12-13 12:15:00
7:35 AM,30.7,30.7,100,30.32,0.2,Calm,Calm,-,N/A,,Overcast,0,2012-12-13 12:35:00
7:55 AM,30.0,30.0,100,30.33,0.2,Calm,Calm,-,N/A,,Overcast,0,2012-12-13 12:55:00
8:15 AM,29.7,29.7,100,30.34,0.2,Calm,Calm,-,N/A,,Overcast,0,2012-12-13 13:15:00
8:35 AM,30.0,30.0,100,30.35,0.2,Calm,Calm,-,N/A,,Overcast,0,2012-12-13 13:35:00
8:55 AM,30.2,30.2,100,30.35,0.2,Calm,Calm,-,N/A,,Overcast,0,2012-12-13 13:55:00
9:15 AM,30.7,30.7,100,30.36,0.2,Calm,Calm,-,N/A,,Overcast,0,2012-12-13 14:15:00
9:35 AM,31.8,31.8,100,30.35,0.2,Calm,Calm,-,N/A,,Overcast,0,2012-12-13 14:35:00
9:55 AM,32.0,32.0,100,30.36,0.5,Calm,Calm,-,N/A,,Overcast,0,2012-12-13 14:55:00
10:15 AM,33.3,33.3,100,30.36,0.2,West,4.6,-,N/A,,Overcast,270,2012-12-13 15:15:00
10:55 AM,35.8,35.8,100,30.34,0.8,Calm,Calm,-,N/A,,Overcast,0,2012-12-13 15:55:00
11:15 AM,37.8,37.8,100,30.33,4.0,WSW,4.6,-,N/A,,Mostly Cloudy,250,2012-12-13 16:15:00
11:35 AM,40.3,40.3,100,30.32,10.0,WSW,5.8,-,N/A,,Scattered Clouds,240,2012-12-13 16:35:00
11:55 AM,42.3,42.3,100,30.32,10.0,WSW,9.2,-,N/A,,Clear,250,2012-12-13 16:55:00
12:15 PM,44.1,44.1,100,30.32,10.0,West,9.2,-,N/A,,Clear,260,2012-12-13 17:15:00
12:35 PM,47.3,43.0,85,30.30,10.0,West,9.2,-,N/A,,Clear,270,2012-12-13 17:35:00
12:55 PM,48.2,41.4,77,30.30,10.0,West,10.4,-,N/A,,Clear,260,2012-12-13 17:55:00
1:15 PM,49.1,41.7,76,30.30,10.0,West,8.1,-,N/A,,Clear,270,2012-12-13 18:15:00
1:35 PM,50.9,41.4,70,30.30,10.0,West,8.1,-,N/A,,Clear,260,2012-12-13 18:35:00
1:55 PM,52.0,41.0,66,30.29,10.0,West,6.9,-,N/A,,Clear,260,2012-12-13 18:55:00
2:15 PM,52.9,40.1,62,30.29,10.0,West,8.1,-,N/A,,Clear,260,2012-12-13 19:15:00
2:35 PM,53.8,39.6,59,30.29,10.0,WSW,4.6,-,N/A,,Clear,250,2012-12-13 19:35:00
2:55 PM,54.5,39.6,57,30.28,10.0,WSW,3.5,-,N/A,,Clear,240,2012-12-13 19:55:00
3:15 PM,54.9,39.2,56,30.28,10.0,West,4.6,-,N/A,,Clear,260,2012-12-13 20:15:00
3:35 PM,54.9,38.7,54,30.27,10.0,Calm,Calm,-,N/A,,Clear,0,2012-12-13 20:35:00
3:55 PM,55.0,38.5,54,30.27,10.0,Calm,Calm,-,N/A,,Clear,0,2012-12-13 20:55:00
4:15 PM,55.4,39.0,54,30.27,10.0,Calm,Calm,-,N/A,,Clear,0,2012-12-13 21:15:00
4:35 PM,54.9,40.1,58,30.27,10.0,Calm,Calm,-,N/A,,Clear,0,2012-12-13 21:35:00
4:55 PM,50.5,41.5,71,30.27,5.0,Calm,Calm,-,N/A,,Clear,0,2012-12-13 21:55:00
5:35 PM,45.9,40.1,80,30.27,10.0,NNW,3.5,-,N/A,,Clear,330,2012-12-13 22:35:00
6:35 PM,40.5,38.1,91,30.30,10.0,Calm,Calm,-,N/A,,Clear,0,2012-12-13 23:35:00
8:15 PM,34.9,34.0,97,30.31,7.0,Calm,Calm,-,N/A,,Clear,0,2012-12-14 01:15:00
8:35 PM,36.3,35.6,97,30.31,7.0,Calm,Calm,-,N/A,,Clear,0,2012-12-14 01:35:00
8:55 PM,34.0,33.4,98,30.31,10.0,Calm,Calm,-,N/A,,Clear,0,2012-12-14 01:55:00
9:15 PM,34.5,34.3,99,30.32,7.0,Calm,Calm,-,N/A,,Clear,0,2012-12-14 02:15:00
9:35 PM,32.4,32.0,99,30.33,2.0,Calm,Calm,-,N/A,,Clear,0,2012-12-14 02:35:00
9:55 PM,33.1,32.9,99,30.33,10.0,Calm,Calm,-,N/A,,Clear,0,2012-12-14 02:55:00
10:15 PM,32.9,32.5,99,30.34,10.0,Calm,Calm,-,N/A,,Clear,0,2012-12-14 03:15:00
10:35 PM,32.7,32.4,99,30.34,5.0,Calm,Calm,-,N/A,,Clear,0,2012-12-14 03:35:00
10:55 PM,32.0,32.0,100,30.34,10.0,Calm,Calm,-,N/A,,Clear,0,2012-12-14 03:55:00
11:15 PM,32.0,32.0,100,30.34,4.0,Calm,Calm,-,N/A,,Clear,0,2012-12-14 04:15:00
11:35 PM,31.1,30.9,99,30.35,10.0,Calm,Calm,-,N/A,,Clear,0,2012-12-14 04:35:00
11:55 PM,31.1,31.1,100,30.34,10.0,Calm,Calm,-,N/A,,Clear,0,2012-12-14 04:55:00